Regional Weather Roundup
Issued by NWS Kansas City/Pleasant Hill, MO

Home | Current Version | Previous Version | Text Only | Print | Product List | Glossary On
Versions: 1 2 3 4 5 6 7 8 9 10 11 12 13 14 15 16 17 18 19 20 21 22 23 24 25 26 27 28 29 30 31 32 33 34 35 36 37 38 39 40 41 42 43 44 45 46 47 48 49 50
000
ASUS43 KEAX 200511
RWREAX

WEATHER ROUNDUP FOR EASTERN KANSAS AND NORTHWEST MISSOURI
NATIONAL WEATHER SERVICE KANSAS CITY/PLEASANT HILL MO
1200 AM CDT WED AUG 20 2014

KSZ040-057-103>105-MOZ028-029-037-043-200600-
...KANSAS CITY METROPOLITAN AREA...

CITY           SKY/WX    TMP DP  RH WIND       PRES   REMARKS
K.C. INTL      PTCLDY    79  72  79 S9        29.82R
K.C. DOWNTOWN  CLEAR     82  70  66 S7        29.81R
LEES SUMMIT    CLEAR     81  71  71 S7        29.84R
OLATHE - IXD   CLEAR     75  69  81 S6        29.84R
OLATHE - OJC   CLEAR     79  69  71 S7        29.83R
LAWRENCE       CLEAR     77  69  76 SE3       29.82R

$$

MOZ001>008-011>017-020>025-030>033-038>040-044>046-053-054-200600-
...NORTHERN AND CENTRAL MISSOURI...

CITY           SKY/WX    TMP DP  RH WIND       PRES   REMARKS
ST. JOSEPH     PTCLDY    77  72  84 SE3       29.81R
MOSBY          CLEAR     75  73  94 CALM      29.82R
WHITEMAN AFB   CLEAR     74  65  73 S5        29.84R
CLINTON        CLEAR     77  73  88 CALM      29.85S
SEDALIA        CLEAR     75  71  87 S7        29.86R
WARSAW         NOT AVBL
MARSHALL       CLEAR     77  75  94 E3        29.85R
CHILLICOTHE      N/A     73  71  93 CALM      29.84R
MOBERLY        CLEAR     72  68  88 CALM      29.85S
KIRKSVILLE     CLEAR     73  70  90 E6        29.85S

$$

MOZ041-047>049-056>058-063>065-088>090-097-200600-
...EASTERN AND SOUTHERN MISSOURI...

CITY           SKY/WX    TMP DP  RH WIND       PRES   REMARKS
ST. LOUIS INTL NOT AVBL
SPIRIT OF STL  CLEAR     72  70  93 CALM      29.83R
COLUMBIA       CLEAR     75  72  90 S3        29.86R
JEFFERSON CITY CLEAR     74  71  91 CALM      29.84R
MEXICO         CLEAR    N/A N/A N/A S3        29.85S
HANNIBAL       PTCLDY    73  72  94 CALM      29.85R
ROLLA          CLEAR     73  67  81 SW5       29.86S
LEBANON        CLEAR     79  64  61 SW3       29.91R
OSAGE BEACH    CLEAR     73  70  88 CALM      29.87R
SPRINGFIELD    CLEAR     77  66  68 SW6       29.90S
BRANSON        CLEAR     79  70  73 SW6       29.93S
JOPLIN         CLEAR     81  70  69 S9        29.88S
WEST PLAINS    CLEAR     78  70  76 SW7       29.92R

$$

IAZ060-094-KSZ022-034>040-054-083-096-NEZ052-066-093-200600-
...KANSAS...SOUTHEAST NEBRASKA AND IOWA...

CITY           SKY/WX    TMP DP  RH WIND       PRES   REMARKS
TOPEKA         CLEAR     81  68  64 S5        29.81R
MANHATTAN      PTCLDY    80  68  66 SW7       29.80R
EMPORIA        CLEAR     73  66  78 S8        29.84R
CHANUTE        CLEAR     80  71  74 S12       29.86R
WICHITA        PTCLDY    81  67  62 S12       29.84R
OMAHA          MOCLDY    76  64  66 SE7       29.80S
LINCOLN        PTCLDY    79  70  74 SE6       29.80R
FALLS CITY     PTCLDY    75  73  93 SE3       29.79S
LAMONI         CLEAR     74  67  78 E5        29.84R
DES MOINES     PTCLDY    75  66  73 CALM      29.82S

$$



USA.gov is the U.S. government's official web portal to all federal, state and local government web resources and services.